Time,TemperatureF,DewpointF,PressureIn,WindDirection,WindDirectionDegrees,WindSpeedMPH,WindSpeedGustMPH,Humidity,HourlyPrecipIn,Conditions,Clouds,dailyrainin,SoftwareType,DateUTC
2013-01-19 00:33:00,31.0,-99.9,-100.00,NW,318,1.0,-999.0,-999,-99.99,,,0.00,,2013-01-19 05:33:00,
2013-01-19 00:43:00,31.0,-99.9,-100.00,NW,318,1.0,-999.0,-999,-99.99,,,0.00,,2013-01-19 05:43:00,
2013-01-19 00:53:00,30.0,-99.9,-100.00,West,277,1.0,-999.0,-999,-99.99,,,0.00,,2013-01-19 05:53:00,
2013-01-19 01:03:00,30.0,-99.9,-100.00,West,277,1.0,-999.0,-999,-99.99,,,0.00,,2013-01-19 06:03:00,
2013-01-19 01:12:00,30.0,-99.9,-100.00,West,277,1.0,-999.0,-999,-99.99,,,0.00,,2013-01-19 06:12:00,
2013-01-19 01:23:00,30.0,-99.9,-100.00,West,266,2.0,-999.0,-999,-99.99,,,0.00,,2013-01-19 06:23:00,
2013-01-19 01:33:00,30.0,-99.9,-100.00,West,266,2.0,-999.0,-999,-99.99,,,0.00,,2013-01-19 06:33:00,
2013-01-19 01:43:00,30.0,-99.9,-100.00,West,266,2.0,-999.0,-999,-99.99,,,0.00,,2013-01-19 06:43:00,
2013-01-19 01:53:00,30.0,-99.9,-100.00,NW,321,1.0,-999.0,-999,-99.99,,,0.00,,2013-01-19 06:53:00,
2013-01-19 02:00:00,30.0,-99.9,-100.00,NW,316,1.0,-999.0,-999,-99.99,,,0.00,,2013-01-19 07:00:00,
2013-01-19 02:02:00,30.0,-99.9,-100.00,NW,321,1.0,-999.0,-999,-99.99,,,0.00,,2013-01-19 07:02:00,
2013-01-19 02:12:00,30.0,-99.9,-100.00,NW,321,1.0,-999.0,-999,-99.99,,,0.00,,2013-01-19 07:12:00,
2013-01-19 02:23:00,30.0,-99.9,-100.00,NW,324,2.0,-999.0,-999,-99.99,,,0.00,,2013-01-19 07:23:00,
2013-01-19 02:33:00,30.0,-99.9,-100.00,NW,324,2.0,-999.0,-999,-99.99,,,0.00,,2013-01-19 07:33:00,
2013-01-19 02:43:00,30.0,-99.9,-100.00,NW,316,1.0,-999.0,-999,-99.99,,,0.00,,2013-01-19 07:43:00,
2013-01-19 02:53:00,30.0,-99.9,-100.00,NW,316,1.0,-999.0,-999,-99.99,,,0.00,,2013-01-19 07:53:00,
2013-01-19 03:00:00,29.0,-99.9,-100.00,NNW,330,1.0,-999.0,-999,-99.99,,,0.00,,2013-01-19 08:00:00,
2013-01-19 03:12:00,31.0,-99.9,-100.00,East,90,0.0,-999.0,-999,-99.99,,,0.00,,2013-01-19 08:12:00,
2013-01-19 03:23:00,30.0,-99.9,-100.00,WNW,284,1.0,-999.0,-999,-99.99,,,0.00,,2013-01-19 08:23:00,
2013-01-19 03:33:00,30.0,-99.9,-100.00,WNW,284,1.0,-999.0,-999,-99.99,,,0.00,,2013-01-19 08:33:00,
2013-01-19 03:43:00,29.0,-99.9,-100.00,NNW,330,1.0,-999.0,-999,-99.99,,,0.00,,2013-01-19 08:43:00,
2013-01-19 03:53:00,29.0,-99.9,-100.00,NNW,330,1.0,-999.0,-999,-99.99,,,0.00,,2013-01-19 08:53:00,
2013-01-19 04:12:00,29.0,-99.9,-100.00,West,275,1.0,-999.0,-999,-99.99,,,0.00,,2013-01-19 09:12:00,
2013-01-19 04:23:00,29.0,-99.9,-100.00,WSW,249,1.0,-999.0,-999,-99.99,,,0.00,,2013-01-19 09:23:00,
2013-01-19 04:33:00,29.0,-99.9,-100.00,WSW,249,1.0,-999.0,-999,-99.99,,,0.00,,2013-01-19 09:33:00,
2013-01-19 04:43:00,30.0,-99.9,-100.00,South,191,1.0,-999.0,-999,-99.99,,,0.00,,2013-01-19 09:43:00,
2013-01-19 04:53:00,29.0,-99.9,-100.00,SSW,202,1.0,-999.0,-999,-99.99,,,0.00,,2013-01-19 09:53:00,
2013-01-19 05:03:00,29.0,-99.9,-100.00,SSW,202,1.0,-999.0,-999,-99.99,,,0.00,,2013-01-19 10:03:00,
2013-01-19 05:13:00,29.0,-99.9,-100.00,WNW,286,2.0,-999.0,-999,-99.99,,,0.00,,2013-01-19 10:13:00,
2013-01-19 05:23:00,28.0,-99.9,-100.00,West,275,2.0,-999.0,-999,-99.99,,,0.00,,2013-01-19 10:23:00,
2013-01-19 05:33:00,28.0,-99.9,-100.00,West,275,2.0,-999.0,-999,-99.99,,,0.00,,2013-01-19 10:33:00,
2013-01-19 05:43:00,29.0,-99.9,-100.00,West,264,2.0,-999.0,-999,-99.99,,,0.00,,2013-01-19 10:43:00,
2013-01-19 05:53:00,29.0,-99.9,-100.00,West,261,2.0,-999.0,-999,-99.99,,,0.00,,2013-01-19 10:53:00,
2013-01-19 06:03:00,29.0,-99.9,-100.00,West,261,2.0,-999.0,-999,-99.99,,,0.00,,2013-01-19 11:03:00,
2013-01-19 06:13:00,29.0,-99.9,-100.00,WNW,283,1.0,-999.0,-999,-99.99,,,0.00,,2013-01-19 11:13:00,
2013-01-19 06:15:00,30.0,-99.9,-100.00,South,184,1.0,-999.0,-999,-99.99,,,0.00,,2013-01-19 11:15:00,
2013-01-19 06:30:00,30.0,-99.9,-100.00,SSE,165,2.0,-999.0,-999,-99.99,,,0.00,,2013-01-19 11:30:00,
2013-01-19 07:49:00,29.0,-99.9,-100.00,WSW,237,1.0,-999.0,-999,-99.99,,,0.00,,2013-01-19 12:49:00,
2013-01-19 07:53:00,29.0,-99.9,-100.00,WNW,289,2.0,-999.0,-999,-99.99,,,0.00,,2013-01-19 12:53:00,
2013-01-19 08:03:00,29.0,-99.9,-100.00,WNW,289,2.0,-999.0,-999,-99.99,,,0.00,,2013-01-19 13:03:00,
2013-01-19 08:13:00,29.0,-99.9,-100.00,NW,304,2.0,-999.0,-999,-99.99,,,0.00,,2013-01-19 13:13:00,
2013-01-19 08:23:00,29.0,-99.9,-100.00,NNW,342,1.0,-999.0,-999,-99.99,,,0.00,,2013-01-19 13:23:00,
2013-01-19 08:34:00,29.0,-99.9,-100.00,NNW,342,1.0,-999.0,-999,-99.99,,,0.00,,2013-01-19 13:34:00,
2013-01-19 08:43:00,29.0,-99.9,-100.00,NW,312,1.0,-999.0,-999,-99.99,,,0.00,,2013-01-19 13:43:00,
2013-01-19 08:54:00,28.0,-99.9,-100.00,South,173,2.0,-999.0,-999,-99.99,,,0.00,,2013-01-19 13:54:00,
2013-01-19 09:03:00,28.0,-99.9,-100.00,South,173,2.0,-999.0,-999,-99.99,,,0.00,,2013-01-19 14:03:00,
2013-01-19 09:13:00,28.0,-99.9,-100.00,SSE,165,2.0,-999.0,-999,-99.99,,,0.00,,2013-01-19 14:13:00,
2013-01-19 09:23:00,28.0,-99.9,-100.00,SSE,149,2.0,-999.0,-999,-99.99,,,0.00,,2013-01-19 14:23:00,
2013-01-19 09:34:00,28.0,-99.9,-100.00,SSE,149,2.0,-999.0,-999,-99.99,,,0.00,,2013-01-19 14:34:00,
2013-01-19 09:44:00,28.0,-99.9,-100.00,SSE,156,2.0,-999.0,-999,-99.99,,,0.00,,2013-01-19 14:44:00,
2013-01-19 09:54:00,28.0,-99.9,-100.00,SSE,157,1.0,-999.0,-999,-99.99,,,0.00,,2013-01-19 14:54:00,
2013-01-19 10:04:00,28.0,-99.9,-100.00,SSE,157,1.0,-999.0,-999,-99.99,,,0.00,,2013-01-19 15:04:00,
2013-01-19 10:13:00,28.0,-99.9,-100.00,SSE,166,1.0,-999.0,-999,-99.99,,,0.00,,2013-01-19 15:13:00,
2013-01-19 10:23:00,29.0,-99.9,-100.00,WSW,249,1.0,-999.0,-999,-99.99,,,-99.99,,2013-01-19 15:23:00,
2013-01-19 10:34:00,29.0,-99.9,-100.00,WSW,249,1.0,-999.0,-999,-99.99,,,-99.99,,2013-01-19 15:34:00,
2013-01-19 10:43:00,29.0,-99.9,-100.00,NW,314,2.0,-999.0,-999,-99.99,,,0.00,,2013-01-19 15:43:00,
2013-01-19 10:54:00,30.0,-99.9,-100.00,NW,306,2.0,-999.0,-999,-99.99,,,-99.99,,2013-01-19 15:54:00,
2013-01-19 11:04:00,30.0,-99.9,-100.00,NW,306,2.0,-999.0,-999,-99.99,,,-99.99,,2013-01-19 16:04:00,
2013-01-19 11:13:00,30.0,-99.9,-100.00,WNW,301,1.0,-999.0,-999,-99.99,,,0.00,,2013-01-19 16:13:00,
2013-01-19 11:24:00,31.0,-99.9,-100.00,WNW,287,1.0,-999.0,-999,-99.99,,,-99.99,,2013-01-19 16:24:00,
2013-01-19 11:34:00,31.0,-99.9,-100.00,WNW,287,1.0,-999.0,-999,-99.99,,,-99.99,,2013-01-19 16:34:00,
2013-01-19 11:43:00,32.0,-99.9,-100.00,West,274,2.0,-999.0,-999,-99.99,,,0.00,,2013-01-19 16:43:00,
2013-01-19 11:54:00,34.0,-99.9,-100.00,NW,305,1.0,-999.0,-999,-99.99,,,0.00,,2013-01-19 16:54:00,
2013-01-19 12:03:00,34.0,-99.9,-100.00,NW,305,1.0,-999.0,-999,-99.99,,,0.00,,2013-01-19 17:03:00,
2013-01-19 12:29:00,39.0,-99.9,-100.00,SW,214,5.0,-999.0,-999,-99.99,,,0.00,,2013-01-19 17:29:00,
2013-01-19 12:39:00,41.0,-99.9,-100.00,SW,216,7.0,-999.0,-999,-99.99,,,0.00,,2013-01-19 17:39:00,
2013-01-19 12:50:00,41.0,-99.9,-100.00,SW,216,7.0,-999.0,-999,-99.99,,,0.00,,2013-01-19 17:50:00,
2013-01-19 12:57:00,43.0,-99.9,-100.00,SW,222,6.0,-999.0,-999,-99.99,,,-99.99,,2013-01-19 17:57:00,
2013-01-19 13:00:00,46.0,-99.9,-100.00,SW,227,6.0,-999.0,-999,-99.99,,,0.00,,2013-01-19 18:00:00,
2013-01-19 13:13:00,43.0,-99.9,-100.00,SW,222,6.0,-999.0,-999,-99.99,,,-99.99,,2013-01-19 18:13:00,
2013-01-19 13:30:00,45.0,-99.9,-100.00,SW,216,7.0,-999.0,-999,-99.99,,,0.00,,2013-01-19 18:30:00,
2013-01-19 13:39:00,45.0,-99.9,-100.00,SW,216,7.0,-999.0,-999,-99.99,,,0.00,,2013-01-19 18:39:00,
2013-01-19 13:49:00,46.0,-99.9,-100.00,SW,227,6.0,-999.0,-999,-99.99,,,0.00,,2013-01-19 18:49:00,
2013-01-19 14:24:00,48.0,-99.9,-100.00,SW,233,5.0,-999.0,-999,-99.99,,,0.00,,2013-01-19 19:24:00,
2013-01-19 14:34:00,49.0,-99.9,-100.00,SW,218,5.0,-999.0,-999,-99.99,,,0.00,,2013-01-19 19:34:00,
2013-01-19 14:40:00,49.0,-99.9,-100.00,SW,218,5.0,-999.0,-999,-99.99,,,0.00,,2013-01-19 19:40:00,
2013-01-19 15:00:00,51.0,-99.9,-100.00,SSW,205,7.0,-999.0,-999,-99.99,,,0.00,,2013-01-19 20:00:00,
2013-01-19 15:14:00,51.0,-99.9,-100.00,SSW,205,7.0,-999.0,-999,-99.99,,,0.00,,2013-01-19 20:14:00,
2013-01-19 15:28:00,52.0,-99.9,-100.00,SSW,201,7.0,-999.0,-999,-99.99,,,0.00,,2013-01-19 20:28:00,
2013-01-19 15:40:00,52.0,-99.9,-100.00,SSW,201,7.0,-999.0,-999,-99.99,,,0.00,,2013-01-19 20:40:00,
2013-01-19 15:52:00,52.0,-99.9,-100.00,South,186,8.0,-999.0,-999,-99.99,,,0.00,,2013-01-19 20:52:00,
2013-01-19 16:00:00,52.0,-99.9,-100.00,SSW,198,7.0,-999.0,-999,-99.99,,,0.00,,2013-01-19 21:00:00,
2013-01-19 16:11:00,52.0,-99.9,-100.00,SSW,198,7.0,-999.0,-999,-99.99,,,0.00,,2013-01-19 21:11:00,
2013-01-19 16:15:00,53.0,-99.9,-100.00,SSW,204,7.0,-999.0,-999,-99.99,,,0.00,,2013-01-19 21:15:00,
2013-01-19 16:31:00,53.0,-99.9,-100.00,SSW,197,8.0,-999.0,-999,-99.99,,,0.00,,2013-01-19 21:31:00,
2013-01-19 16:56:00,53.0,-99.9,-100.00,SSW,203,7.0,-999.0,-999,-99.99,,,0.00,,2013-01-19 21:56:00,
2013-01-19 17:22:00,53.0,-99.9,-100.00,SSW,197,7.0,-999.0,-999,-99.99,,,0.00,,2013-01-19 22:22:00,
2013-01-19 17:29:00,53.0,-99.9,-100.00,SSW,211,6.0,-999.0,-999,-99.99,,,0.00,,2013-01-19 22:29:00,
2013-01-19 17:37:00,53.0,-99.9,-100.00,SSW,211,6.0,-999.0,-999,-99.99,,,0.00,,2013-01-19 22:37:00,
2013-01-19 17:50:00,53.0,-99.9,-100.00,SSW,197,6.0,-999.0,-999,-99.99,,,0.00,,2013-01-19 22:50:00,
2013-01-19 17:59:00,52.0,-99.9,-100.00,SSW,197,6.0,-999.0,-999,-99.99,,,0.00,,2013-01-19 22:59:00,
2013-01-19 18:14:00,52.0,-99.9,-100.00,SSW,197,6.0,-999.0,-999,-99.99,,,0.00,,2013-01-19 23:14:00,
2013-01-19 18:29:00,51.0,-99.9,-100.00,SSW,196,5.0,-999.0,-999,-99.99,,,0.00,,2013-01-19 23:29:00,
2013-01-19 18:35:00,51.0,-99.9,-100.00,SSW,196,5.0,-999.0,-999,-99.99,,,0.00,,2013-01-19 23:35:00,
2013-01-19 18:54:00,51.0,-99.9,-100.00,South,188,5.0,-999.0,-999,-99.99,,,0.00,,2013-01-19 23:54:00,
2013-01-19 19:08:00,50.0,-99.9,-100.00,SSW,193,5.0,-999.0,-999,-99.99,,,0.00,,2013-01-20 00:08:00,
2013-01-19 19:18:00,50.0,-99.9,-100.00,SSW,197,4.0,-999.0,-999,-99.99,,,0.00,,2013-01-20 00:18:00,
2013-01-19 19:27:00,49.0,-99.9,-100.00,SSW,203,3.0,-999.0,-999,-99.99,,,0.00,,2013-01-20 00:27:00,
2013-01-19 19:39:00,49.0,-99.9,-100.00,SSW,203,3.0,-999.0,-999,-99.99,,,0.00,,2013-01-20 00:39:00,
2013-01-19 19:49:00,48.0,-99.9,-100.00,SSW,204,4.0,-999.0,-999,-99.99,,,0.00,,2013-01-20 00:49:00,
2013-01-19 19:59:00,48.0,-99.9,-100.00,SSW,204,3.0,-999.0,-999,-99.99,,,0.00,,2013-01-20 00:59:00,
2013-01-19 20:05:00,48.0,-99.9,-100.00,SSW,204,3.0,-999.0,-999,-99.99,,,0.00,,2013-01-20 01:05:00,
2013-01-19 20:22:00,47.0,-99.9,-100.00,SSW,208,3.0,-999.0,-999,-99.99,,,-99.99,,2013-01-20 01:22:00,
2013-01-19 20:29:00,46.0,-99.9,-100.00,SW,230,3.0,-999.0,-999,-99.99,,,0.00,,2013-01-20 01:29:00,
2013-01-19 20:40:00,46.0,-99.9,-100.00,SW,230,3.0,-999.0,-999,-99.99,,,0.00,,2013-01-20 01:40:00,
2013-01-19 20:54:00,46.0,-99.9,-100.00,SW,219,3.0,-999.0,-999,-99.99,,,0.00,,2013-01-20 01:54:00,
2013-01-19 21:06:00,46.0,-99.9,-100.00,SW,214,3.0,-999.0,-999,-99.99,,,0.00,,2013-01-20 02:06:00,
2013-01-19 21:16:00,46.0,-99.9,-100.00,SW,226,2.0,-999.0,-999,-99.99,,,0.00,,2013-01-20 02:16:00,
2013-01-19 21:28:00,45.0,-99.9,-100.00,SSW,193,1.0,-999.0,-999,-99.99,,,0.00,,2013-01-20 02:28:00,
2013-01-19 21:47:00,45.0,-99.9,-100.00,SSE,151,0.0,-999.0,-999,-99.99,,,0.00,,2013-01-20 02:47:00,
2013-01-19 22:00:00,45.0,-99.9,-100.00,South,172,2.0,-999.0,-999,-99.99,,,0.00,,2013-01-20 03:00:00,
2013-01-19 22:09:00,45.0,-99.9,-100.00,South,172,2.0,-999.0,-999,-99.99,,,0.00,,2013-01-20 03:09:00,
2013-01-19 22:16:00,44.0,-99.9,-100.00,South,190,2.0,-999.0,-999,-99.99,,,-99.99,,2013-01-20 03:16:00,
2013-01-19 22:28:00,42.0,-99.9,-100.00,SW,236,1.0,-999.0,-999,-99.99,,,0.00,,2013-01-20 03:28:00,
2013-01-19 22:40:00,42.0,-99.9,-100.00,SW,236,1.0,-999.0,-999,-99.99,,,0.00,,2013-01-20 03:40:00,
2013-01-19 22:48:00,41.0,-99.9,-100.00,SW,219,2.0,-999.0,-999,-99.99,,,0.00,,2013-01-20 03:48:00,
2013-01-19 22:59:00,41.0,-99.9,-100.00,SW,219,2.0,-999.0,-999,-99.99,,,0.00,,2013-01-20 03:59:00,
2013-01-19 23:17:00,41.0,-99.9,-100.00,SSW,210,1.0,-999.0,-999,-99.99,,,-99.99,,2013-01-20 04:17:00,
2013-01-19 23:28:00,40.0,-99.9,-100.00,West,262,1.0,-999.0,-999,-99.99,,,0.00,,2013-01-20 04:28:00,
2013-01-19 23:39:00,40.0,-99.9,-100.00,West,262,1.0,-999.0,-999,-99.99,,,0.00,,2013-01-20 04:39:00,
2013-01-19 23:46:00,39.0,-99.9,-100.00,SSW,200,1.0,-999.0,-999,-99.99,,,0.00,,2013-01-20 04:46:00,